Location: Unspecified
(41.5516°N, 88.1098°W)
Time: 21:39:52
(UTC-05:00)

Resurs 1-4 Rocket - Visible Passes

Search period start: 24 September 2017 00:00
Search period end: 04 October 2017 00:00
Orbit: 800 x 814 km, 98.5° (Epoch: 24 September)

Date Brightness Start Highest point End Pass type
(mag) Time Alt. Az. Time Alt. Az. Time Alt. Az.
24 Sep 3.8 03:28:03 10° N 03:30:23 27° N 03:30:23 27° N visible
25 Sep 4.1 03:03:28 10° NNE 03:05:24 23° NNE 03:05:24 23° NNE visible
25 Sep 4.1 04:44:56 10° NNW 04:46:28 14° NW 04:46:28 14° NW visible
26 Sep 4.6 02:39:05 10° NNE 02:40:25 17° NNE 02:40:25 17° NNE visible
26 Sep 3.9 04:19:29 10° NNW 04:21:30 19° NNW 04:21:30 19° NNW visible
27 Sep 5.0 02:15:00 10° NE 02:15:26 12° NE 02:15:26 12° NE visible
27 Sep 3.9 03:54:26 10° N 03:56:31 22° NNW 03:56:31 22° NNW visible
28 Sep 4.0 03:29:38 10° N 03:31:32 23° N 03:31:32 23° N visible
29 Sep 4.3 03:05:01 10° NNE 03:06:34 20° NNE 03:06:34 20° NNE visible
29 Sep 4.2 04:46:36 10° NNW 04:47:38 13° NW 04:47:38 13° NW visible
30 Sep 4.7 02:40:38 10° NNE 02:41:35 15° NNE 02:41:35 15° NNE visible
30 Sep 4.1 04:21:06 10° NNW 04:22:40 17° NNW 04:22:40 17° NNW visible
01 Oct 5.1 02:16:31 10° NE 02:16:37 10° NE 02:16:37 10° NE visible
01 Oct 4.1 03:56:02 10° N 03:57:41 19° NNW 03:57:41 19° NNW visible
02 Oct 4.2 03:31:12 10° N 03:32:42 19° N 03:32:42 19° N visible
03 Oct 4.5 03:06:35 10° NNE 03:07:43 17° NNE 03:07:43 17° NNE visible
03 Oct 4.3 04:48:16 10° NNW 04:48:48 11° NNW 04:48:48 11° NNW visible
